| time (UTC) | temp F | wind direction | speed MPH | gust MPH | rain 1hr in | rain 24hr in | rain mn in | humidity % | barometer mb |
| 20260502215540 | 50 | 299 | 1.0 | 2.0 | 0.00 | 0.00 | 0.00 | 86 | 1019.8 |
| 20260502214520 | 50 | 299 | 0.0 | 0.0 | 0.00 | 0.00 | 0.00 | 87 | 1019.5 |
| 20260502213454 | 50 | 303 | 0.0 | 0.0 | 0.00 | 0.00 | 0.00 | 86 | 1019.5 |
| 20260502212440 | 51 | 303 | 2.0 | 2.0 | 0.00 | 0.00 | 0.00 | 86 | 1019.6 |
| 20260502211423 | 51 | 298 | 1.0 | 2.0 | 0.00 | 0.00 | 0.00 | 86 | 1019.9 |
| 20260502210359 | 51 | 298 | 1.0 | 1.0 | 0.00 | 0.00 | 0.00 | 85 | 1019.9 |
| 20260502205340 | 51 | 299 | 0.0 | 0.0 | 0.00 | 0.00 | 0.00 | 86 | 1019.8 |
| 20260502204327 | 52 | 278 | 1.0 | 2.0 | 0.00 | 0.00 | 0.00 | 85 | 1019.9 |
| 20260502203303 | 52 | 274 | 2.0 | 2.0 | 0.00 | 0.00 | 0.00 | 84 | 1019.7 |
| 20260502202240 | 52 | 298 | 1.0 | 2.0 | 0.00 | 0.00 | 0.00 | 85 | 1019.9 |
| 20260502201214 | 52 | 298 | 1.0 | 1.0 | 0.00 | 0.00 | 0.00 | 85 | 1019.8 |
| 20260502200152 | 52 | 303 | 1.0 | 2.0 | 0.00 | 0.00 | 0.00 | 83 | 1019.8 |
| 20260502195140 | 52 | 286 | 1.0 | 2.0 | 0.00 | 0.00 | 0.00 | 83 | 1019.5 |
| 20260502194119 | 53 | 299 | 2.0 | 2.0 | 0.00 | 0.00 | 0.00 | 83 | 1019.7 |
| 20260502193056 | 53 | 288 | 2.0 | 2.0 | 0.00 | 0.00 | 0.00 | 83 | 1019.7 |
| 20260502192040 | 54 | 303 | 1.0 | 1.0 | 0.00 | 0.00 | 0.00 | 83 | 1019.5 |
| 20260502191023 | 54 | 303 | 2.0 | 2.0 | 0.00 | 0.00 | 0.00 | 79 | 1019.4 |
| 20260502185959 | 54 | 303 | 1.0 | 1.0 | 0.00 | 0.00 | 0.00 | 81 | 1019.4 |
| 20260502184940 | 55 | 300 | 2.0 | 2.0 | 0.00 | 0.00 | 0.00 | 81 | 1019.2 |
| 20260502183927 | 55 | 287 | 2.0 | 2.0 | 0.00 | 0.00 | 0.00 | 80 | 1018.8 |
| 20260502182903 | 56 | 304 | 2.0 | 3.0 | 0.00 | 0.00 | 0.00 | 79 | 1019.0 |
| 20260502181839 | 57 | 306 | 2.0 | 2.0 | 0.00 | 0.00 | 0.00 | 78 | 1018.8 |
| 20260502180815 | 57 | 302 | 2.0 | 3.0 | 0.00 | 0.00 | 0.00 | 77 | 1018.8 |
| 20260502163529 | 66 | 255 | 2.0 | 3.0 | 0.00 | 0.00 | 0.00 | 59 | 1018.9 |
| 20260502162502 | 66 | 306 | 0.0 | 1.0 | 0.00 | 0.00 | 0.00 | 60 | 1019.2 |
| 20260502161439 | 66 | 270 | 0.0 | 1.0 | 0.00 | 0.00 | 0.00 | 60 | 1019.2 |
| 20260502160415 | 66 | 242 | 1.0 | 1.0 | 0.00 | 0.00 | 0.00 | 59 | 1019.3 |
| 20260502152255 | 66 | 264 | 1.0 | 2.0 | 0.00 | 0.00 | 0.00 | 59 | 1019.3 |
| 20260502151241 | 65 | 244 | 2.0 | 4.0 | 0.00 | 0.00 | 0.00 | 60 | 1019.3 |
| 20260502150223 | 66 | 246 | 3.0 | 3.0 | 0.00 | 0.00 | 0.00 | 59 | 1019.5 |
| 20260502123807 | 65 | 310 | 0.0 | 2.0 | 0.00 | 0.00 | 0.00 | 60 | 1021.1 |
| 20260502122743 | 66 | 246 | 2.0 | 4.0 | 0.00 | 0.00 | 0.00 | 60 | 1021.1 |
| 20260502121735 | 66 | 231 | 2.0 | 3.0 | 0.00 | 0.00 | 0.00 | 59 | 1021.2 |
| 20260502120711 | 65 | 224 | 2.0 | 4.0 | 0.00 | 0.00 | 0.00 | 60 | 1021.1 |
| 20260502115703 | 65 | 236 | 4.0 | 8.0 | 0.00 | 0.00 | 0.00 | 59 | 1021.2 |
| 20260502114640 | 64 | 273 | 3.0 | 5.0 | 0.00 | 0.00 | 0.00 | 62 | 1021.4 |
| 20260502113631 | 66 | 268 | 2.0 | 4.0 | 0.00 | 0.00 | 0.00 | 60 | 1021.5 |
| 20260502112623 | 65 | 266 | 0.0 | 1.0 | 0.00 | 0.00 | 0.00 | 62 | 1021.6 |
| 20260502111600 | 65 | 275 | 3.0 | 5.0 | 0.00 | 0.00 | 0.00 | 63 | 1021.9 |
| 20260502110535 | 64 | 247 | 1.0 | 5.0 | 0.00 | 0.00 | 0.00 | 63 | 1022.0 |
| 20260502105527 | 64 | 273 | 0.0 | 1.0 | 0.00 | 0.00 | 0.00 | 63 | 1022.3 |
| 20260502104503 | 64 | 290 | 6.0 | 8.0 | 0.00 | 0.00 | 0.00 | 59 | 1022.3 |
| 20260502103440 | 64 | 262 | 2.0 | 3.0 | 0.00 | 0.00 | 0.00 | 61 | 1022.7 |
| 20260502102416 | 63 | 248 | 0.0 | 1.0 | 0.00 | 0.00 | 0.00 | 64 | 1022.4 |
| 20260502101351 | 62 | 275 | 4.0 | 5.0 | 0.00 | 0.00 | 0.00 | 62 | 1022.6 |
| 20260502100341 | 63 | 244 | 2.0 | 5.0 | 0.00 | 0.00 | 0.00 | 63 | 1022.7 |
| 20260502091200 | 61 | 247 | 1.0 | 2.0 | 0.00 | 0.00 | 0.00 | 64 | 1023.2 |
| 20260502090135 | 61 | 260 | 2.0 | 4.0 | 0.00 | 0.00 | 0.00 | 61 | 1023.0 |
| 20260502070800 | 55 | 237 | 0.0 | 0.0 | 0.00 | 0.00 | 0.00 | 54 | 1024.3 |
| 20260502065740 | 53 | 236 | 0.0 | 0.0 | 0.00 | 0.00 | 0.00 | 60 | 1024.2 |
| 20260502064728 | 50 | 235 | 1.0 | 1.0 | 0.00 | 0.00 | 0.00 | 65 | 1024.2 |
| 20260502063704 | 50 | 281 | 2.0 | 2.0 | 0.00 | 0.00 | 0.00 | 67 | 1024.2 |
| 20260502062639 | 49 | 277 | 0.0 | 0.0 | 0.00 | 0.00 | 0.00 | 70 | 1024.0 |
| 20260502061616 | 47 | 286 | 0.0 | 0.0 | 0.00 | 0.00 | 0.00 | 71 | 1024.1 |
| 20260502060551 | 46 | 278 | 0.0 | 0.0 | 0.00 | 0.00 | 0.00 | 73 | 1024.3 |
| 20260502055540 | 45 | 8 | 1.0 | 2.0 | 0.00 | 0.00 | 0.00 | 77 | 1024.2 |
| 20260502054520 | 43 | 280 | 0.0 | 0.0 | 0.00 | 0.00 | 0.00 | 83 | 1024.3 |
| 20260502053455 | 41 | 281 | 0.0 | 0.0 | 0.00 | 0.00 | 0.00 | 89 | 1024.2 |
| 20260502052441 | 41 | 282 | 0.0 | 0.0 | 0.00 | 0.00 | 0.00 | 88 | 1024.2 |
| 20260502051423 | 40 | 283 | 0.0 | 0.0 | 0.00 | 0.00 | 0.00 | 89 | 1024.4 |
| 20260502050359 | 40 | 282 | 0.0 | 0.0 | 0.00 | 0.00 | 0.00 | 87 | 1024.1 |
| 20260502045341 | 40 | 283 | 0.0 | 0.0 | 0.00 | 0.00 | 0.00 | 88 | 1023.9 |
| 20260502044328 | 40 | 283 | 0.0 | 0.0 | 0.00 | 0.00 | 0.00 | 87 | 1024.0 |
| 20260502043303 | 40 | 282 | 0.0 | 0.0 | 0.00 | 0.00 | 0.00 | 88 | 1024.0 |
| 20260502042239 | 40 | 283 | 1.0 | 1.0 | 0.00 | 0.00 | 0.00 | 85 | 1024.0 |
| 20260502041215 | 41 | 283 | 1.0 | 1.0 | 0.00 | 0.00 | 0.00 | 87 | 1024.1 |
| 20260502040152 | 40 | 283 | 1.0 | 2.0 | 0.00 | 0.00 | 0.00 | 87 | 1023.9 |
| 20260502035141 | 40 | 290 | 0.0 | 0.0 | 0.00 | 0.00 | 0.00 | 89 | 1024.1 |
| 20260502034122 | 40 | 301 | 1.0 | 1.0 | 0.00 | 0.00 | 0.00 | 89 | 1023.9 |
| 20260502033056 | 40 | 283 | 0.0 | 0.0 | 0.00 | 0.00 | 0.00 | 90 | 1023.9 |
| 20260502032040 | 41 | 289 | 1.0 | 1.0 | 0.00 | 0.00 | 0.00 | 88 | 1023.8 |
| 20260502031023 | 41 | 283 | 0.0 | 0.0 | 0.00 | 0.00 | 0.00 | 88 | 1024.0 |
| 20260502025959 | 41 | 282 | 0.0 | 1.0 | 0.00 | 0.00 | 0.00 | 88 | 1023.7 |
| 20260502024940 | 41 | 282 | 0.0 | 0.0 | 0.00 | 0.00 | 0.00 | 89 | 1023.8 |
| 20260502023927 | 41 | 293 | 0.0 | 0.0 | 0.00 | 0.00 | 0.00 | 88 | 1023.9 |
| 20260502022906 | 42 | 293 | 1.0 | 2.0 | 0.00 | 0.00 | 0.00 | 89 | 1024.0 |
| 20260502021840 | 42 | 284 | 0.0 | 0.0 | 0.00 | 0.00 | 0.00 | 87 | 1024.2 |
| 20260502020816 | 41 | 283 | 0.0 | 0.0 | 0.00 | 0.00 | 0.00 | 89 | 1024.1 |
| 20260502015752 | 41 | 283 | 0.0 | 0.0 | 0.00 | 0.00 | 0.00 | 92 | 1023.9 |
| 20260502014740 | 42 | 283 | 0.0 | 0.0 | 0.00 | 0.00 | 0.00 | 89 | 1024.2 |
| 20260502013720 | 42 | 282 | 0.0 | 0.0 | 0.00 | 0.00 | 0.00 | 90 | 1023.8 |
| 20260502012655 | 42 | 282 | 0.0 | 0.0 | 0.00 | 0.00 | 0.00 | 91 | 1023.8 |
| 20260502011640 | 42 | 295 | 0.0 | 0.0 | 0.00 | 0.00 | 0.00 | 92 | 1023.8 |
| 20260502010625 | 43 | 290 | 1.0 | 1.0 | 0.00 | 0.00 | 0.00 | 89 | 1023.9 |
| 20260502005559 | 43 | 293 | 0.0 | 0.0 | 0.00 | 0.00 | 0.00 | 88 | 1023.7 |
| 20260502004541 | 43 | 292 | 0.0 | 0.0 | 0.00 | 0.00 | 0.00 | 90 | 1023.9 |
| 20260502003527 | 43 | 293 | 0.0 | 1.0 | 0.00 | 0.00 | 0.00 | 91 | 1023.7 |
| 20260502002504 | 43 | 282 | 0.0 | 0.0 | 0.00 | 0.00 | 0.00 | 90 | 1023.7 |
| 20260502001440 | 44 | 296 | 2.0 | 2.0 | 0.00 | 0.00 | 0.00 | 89 | 1023.9 |
| 20260502000417 | 44 | 292 | 0.0 | 0.0 | 0.00 | 0.00 | 0.00 | 91 | 1023.8 |
| 20260501235351 | 44 | 295 | 2.0 | 2.0 | 0.00 | 0.00 | 0.00 | 91 | 1024.2 |
| 20260501234341 | 44 | 298 | 0.0 | 1.0 | 0.00 | 0.00 | 0.00 | 92 | 1024.1 |
| 20260501233321 | 44 | 293 | 0.0 | 1.0 | 0.00 | 0.00 | 0.00 | 93 | 1024.1 |
| 20260501232255 | 44 | 292 | 0.0 | 0.0 | 0.00 | 0.00 | 0.00 | 92 | 1024.2 |
| 20260501231241 | 44 | 295 | 0.0 | 0.0 | 0.00 | 0.00 | 0.00 | 94 | 1023.9 |
| 20260501230223 | 44 | 282 | 0.0 | 0.0 | 0.00 | 0.00 | 0.00 | 93 | 1024.1 |
| 20260501225200 | 44 | 300 | 1.0 | 1.0 | 0.00 | 0.00 | 0.00 | 94 | 1024.1 |
| 20260501224141 | 44 | 282 | 2.0 | 2.0 | 0.00 | 0.00 | 0.00 | 94 | 1024.3 |
| 20260501223128 | 44 | 295 | 1.0 | 2.0 | 0.00 | 0.00 | 0.00 | 93 | 1024.2 |
| 20260501222103 | 45 | 282 | 0.0 | 0.0 | 0.00 | 0.00 | 0.00 | 94 | 1024.4 |
| 20260501221039 | 45 | 282 | 0.0 | 0.0 | 0.00 | 0.00 | 0.00 | 94 | 1024.3 |